Dewpoint
-4 -2 -3 -5 -5 -6 -5 -4 -3 -4 -5 -5 -3 -4 -5 -6 -5 -3 -2 -2 -2 -0 1 3 -0 -2 -3 -6 -8 -9 -8 -8 -7 -5 -3 -1 -1 -2 -3 -4 -5 -4 -2 -2
-2 -1 -6 -7 -6 -5 -4 -2 -3 -4 -5 -4 -3 -3 -5 -5 -5 -5 -3 -2 -2 -2 1 3 -1 -2 -3 -5 -7 -9 -9 -9 -8 -7 -6 -4 -4 -4 -4 -6 -7 -7 -8 -9
-2 -3 -7 -7 -5 -4 -3 -2 -3 -2 -3 -4 -3 -3 -4 -4 -4 -4 -3 -2 -1 -1 1 2 -0 -2 -3 -5 -7 -8 -9 -9 -10 -9 -9 -8 -7 -6 -8 -10 -11 -13 -13 -13
-3 -6 -5 -4 -3 -5 -1 -5 -4 -2 -1 -1 -3 -3 -6 -5 -5 -4 -4 -2 -1 -0 1 2 -0 -2 -4 -5 -7 -8 -9 -9 -10 -10 -10 -11 -9 -9 -13 -14 -15 -15 -15 -15
1 -3 -3 -1 -3 -6 -2 -5 -3 -2 -1 -1 -1 -1 -5 -5 -5 -6 -6 -5 -2 -0 0 1 -1 -3 -5 -5 -6 -7 -8 -9 -9 -10 -11 -12 -13 -13 -14 -14 -14 -15 -15 -15
-3 -4 -5 -4 -6 -7 -6 -3 -2 -1 0 4 -1 -1 -3 -4 -5 -5 -6 -6 -4 -1 -0 0 -0 -4 -5 -6 -6 -7 -7 -8 -8 -9 -10 -12 -13 -13 -14 -15 -15 -15 -15 -15
-0 -1 -4 -7 -4 -4 -2 1 5 6 7 4 -2 -1 -2 -4 -5 -5 -5 -5 -4 -3 -1 -1 -1 -4 -5 -6 -7 -7 -7 -8 -8 -9 -10 -10 -12 -13 -14 -15 -15 -16 -16 -16
2 5 -2 -6 -3 -1 -1 -0 3 5 4 2 -2 1 -1 -5 -5 -5 -5 -5 -4 -3 -2 -1 -1 -3 -5 -6 -6 -7 -7 -8 -9 -9 -9 -10 -11 -12 -13 -15 -15 -16 -16 -16
1 1 -5 -6 -7 -4 -1 1 -2 1 0 2 0 -1 -4 -5 -5 -5 -5 -5 -5 -5 -3 -2 -1 -1 -2 -4 -6 -6 -6 -7 -8 -9 -9 -11 -11 -13 -14 -15 -16 -15 -15 -13
-1 2 -1 -5 -6 -6 -3 -4 1 1 5 6 2 1 2 -2 -3 -4 -4 -4 -4 -5 -4 -4 -4 -3 -3 -4 -5 -5 -6 -6 -8 -9 -10 -11 -12 -13 -14 -15 -15 -14 -13 -12
-2 -0 2 -1 -1 0 -3 -1 -2 -0 2 8 5 2 -2 -1 -2 -2 -3 -4 -4 -4 -3 -3 -5 -5 -4 -4 -4 -4 -5 -6 -8 -9 -10 -11 -12 -13 -14 -15 -14 -13 -10 -8
-2 -0 3 2 -2 -4 -3 -1 -1 7 8 5 4 5 -2 -3 -4 -3 -3 -3 -4 -4 -3 -4 -5 -5 -4 -4 -5 -6 -6 -5 -7 -8 -9 -12 -12 -14 -15 -15 -14 -9 -8 -8
-2 1 5 5 1 -1 0 -0 0 4 6 6 7 5 -3 -4 -3 -1 -0 -2 -3 -4 -3 -5 -6 -6 -7 -6 -7 -7 -6 -2 -6 -7 -10 -12 -13 -13 -13 -14 -11 -8 -8 -9
-3 0 3 8 6 4 6 5 4 6 6 4 5 4 2 -0 -0 -0 -0 -1 -1 -3 -4 -5 -7 -8 -7 -6 -3 -1 -3 -5 -8 -9 -12 -11 -12 -11 -10 -12 -9 -9 -9 -9
1 6 5 5 4 5 5 5 6 6 5 6 5 4 2 1 -0 -1 -1 -1 -2 -3 -5 -5 -5 -3 -1 -1 -2 -5 -7 -6 -6 -7 -9 -10 -11 -13 -14 -11 -10 -9 -9 -10
4 6 5 6 5 5 6 5 5 5 4 5 5 5 -0 -1 -1 -2 -3 -3 -3 -5 -4 -4 -3 -3 -3 -4 -5 -5 -6 -6 -6 -8 -9 -10 -11 -10 -12 -11 -10 -9 -10 -10
4 5 5 7 4 6 7 4 3 3 2 2 4 2 0 -0 -2 -3 -3 -3 -3 -4 -5 -5 -6 -6 -6 -6 -6 -6 -6 -7 -10 -12 -12 -12 -12 -11 -10 -10 -9 -10 -10 -10
4 4 5 6 6 8 2 -1 0 2 1 -1 -0 -1 -2 -1 -3 -5 -5 -5 -6 -6 -6 -6 -6 -6 -6 -7 -7 -7 -9 -12 -12 -12 -11 -11 -11 -10 -9 -10 -11 -11 -11 -11
3 4 5 6 7 5 3 -0 1 3 -1 -5 -4 -5 -5 -5 -2 -5 -6 -6 -7 -7 -7 -7 -7 -7 -7 -7 -8 -9 -9 -9 -10 -10 -10 -9 -9 -10 -11 -11 -11 -11 -11 -11
1 3 5 6 7 6 1 -4 -4 -1 2 -7 -6 -6 -6 -6 -2 -5 -6 -7 -7 -8 -8 -8 -8 -8 -9 -9 -10 -10 -10 -10 -10 -10 -10 -10 -11 -11 -11 -11 -12 -12 -12 -13
4 5 6 5 6 5 -7 -7 -5 4 -2 -7 -7 -7 -8 -7 -7 -7 -8 -8 -8 -9 -9 -9 -9 -10 -10 -11 -11 -11 -11 -11 -11 -11 -11 -11 -12 -12 -12 -12 -12 -13 -15 -15
6 7 5 6 7 6 -8 -7 -3 -7 -7 -8 -8 -8 -8 -8 -8 -9 -9 -10 -10 -10 -10 -10 -11 -11 -11 -11 -11 -12 -11 -11 -12 -12 -12 -12 -12 -13 -14 -14 -16 -18 -17 -16
6 0 2 -2 -4 -8 -9 -8 -9 -10 -9 -9 -9 -10 -10 -10 -10 -11 -11 -10 -11 -11 -11 -11 -12 -12 -12 -12 -12 -12 -12 -12 -13 -13 -13 -13 -14 -15 -17 -18 -18 -17 -17 -15
-3 -5 -3 -4 -7 -9 -9 -10 -10 -10 -11 -11 -11 -11 -11 -11 -11 -11 -11 -12 -12 -12 -12 -12 -12 -12 -12 -13 -13 -13 -13 -14 -14 -15 -16 -17 -17 -18 -17 -17 -17 -17 -17 -16
-9 -8 -6 -7 -8 -9 -9 -10 -11 -11 -11 -11 -12 -12 -12 -12 -12 -12 -12 -12 -13 -13 -13 -13 -14 -14 -15 -16 -16 -16 -16 -16 -16 -17 -17 -18 -18 -18 -18 -19 -19 -18 -18 -16
-11 -11 -7 -7 -11 -11 -10 -11 -12 -12 -13 -13 -12 -12 -13 -13 -13 -13 -13 -13 -14 -14 -15 -15 -15 -16 -16 -16 -16 -17 -17 -17 -16 -17 -17 -18 -17 -17 -16 -16 -16 -16 -15 -15
Wind_Speed
1 4 3 3 3 3 5 9 13 11 4 9 12 20 18 16 19 20 21 20 17 17 15 15 16 14 12 9 8 7 5 4 3 3 3 2 2 3 4 5 7 8 8 9
5 3 2 1 2 5 7 11 10 6 2 8 15 24 15 7 13 17 19 19 18 16 17 17 17 16 13 11 10 9 7 5 4 3 2 2 2 3 4 4 6 7 7 8
4 3 2 3 4 7 8 8 10 9 16 9 10 10 5 3 3 7 13 14 15 18 20 19 18 17 15 13 12 10 8 6 5 4 4 4 4 5 6 6 6 6 6 7
4 4 3 5 7 2 9 3 6 12 10 5 2 6 5 3 4 7 10 12 12 16 18 18 17 17 16 14 13 11 9 7 6 6 6 5 5 6 6 7 7 8 9 10
0 4 5 6 4 2 4 4 9 10 9 9 8 4 2 4 1 5 9 12 13 15 17 18 18 17 15 16 13 11 10 9 9 8 7 7 7 7 7 7 8 9 9 9
4 0 3 3 2 5 9 8 12 4 4 5 3 3 6 6 5 5 7 8 11 13 15 16 16 17 17 16 14 13 12 12 12 11 10 8 8 7 7 7 7 8 9 9
5 5 2 2 4 4 5 9 4 3 4 7 4 3 11 10 2 4 5 6 9 12 15 16 18 19 19 17 16 15 16 15 14 14 11 10 9 9 9 8 8 8 8 8
4 4 7 8 3 3 3 3 4 7 10 15 6 6 2 3 1 2 3 4 8 12 15 17 18 18 18 18 18 18 18 18 16 14 13 12 12 12 11 10 9 8 8 9
4 5 3 1 1 2 4 5 3 6 12 6 6 8 11 0 2 5 6 7 10 10 12 14 13 14 15 17 19 19 19 18 17 16 15 15 14 13 13 11 9 9 10 11
2 8 2 4 2 4 5 2 4 4 5 10 10 17 7 3 1 1 5 10 12 11 9 10 13 14 15 15 17 19 18 17 18 17 16 16 15 14 13 11 11 10 11 13
3 4 2 3 9 5 4 4 5 2 5 4 9 5 5 4 2 5 9 9 11 12 13 12 12 12 12 12 14 16 15 15 17 17 16 16 15 14 12 12 12 11 12 15
3 5 9 17 5 3 4 9 11 4 4 7 8 12 14 5 5 7 14 14 11 12 13 9 8 7 7 7 10 12 11 10 14 15 15 15 14 13 13 12 12 12 14 15
4 4 7 7 1 1 4 4 4 11 7 10 8 8 4 2 9 21 23 15 12 10 7 3 2 2 3 3 4 4 6 9 10 14 14 13 11 11 11 12 12 14 16 17
5 6 12 12 19 13 6 8 12 10 4 10 16 24 23 19 16 18 22 21 15 5 3 1 2 1 3 4 6 8 7 5 7 10 10 10 11 10 11 13 14 16 18 18
4 6 12 19 23 22 24 21 19 15 20 11 25 24 20 18 14 16 19 20 13 6 5 3 4 6 8 8 7 5 3 6 8 8 9 10 12 15 14 15 17 18 18 16
2 3 3 10 19 20 26 23 23 23 23 23 24 27 12 15 17 21 20 18 10 8 7 6 7 8 9 9 6 5 5 5 7 8 10 14 15 14 15 17 19 18 16 14
6 4 4 16 13 9 11 21 22 18 9 8 12 6 13 13 14 17 16 14 12 9 8 9 11 11 11 10 10 8 7 8 8 11 12 13 15 16 16 17 16 14 13 14
9 6 3 9 3 8 3 8 5 11 12 12 10 12 14 15 9 12 16 14 11 10 10 10 10 10 11 11 10 10 10 10 11 11 13 15 16 17 17 16 13 13 12 14
18 7 5 4 7 12 13 7 6 6 6 12 11 12 15 19 5 14 16 14 12 11 11 11 12 13 12 12 12 12 12 12 14 15 15 16 17 17 15 15 13 13 14 16
4 11 6 3 5 7 6 10 16 9 4 14 13 12 15 17 4 7 17 13 12 12 13 13 14 14 14 13 13 13 12 13 13 15 17 16 15 16 15 14 15 15 17 17
3 3 9 11 5 1 11 19 11 3 5 12 12 12 13 7 7 13 13 12 12 13 14 15 15 16 17 16 15 15 14 13 14 17 16 16 16 16 16 16 17 17 18 18
3 3 5 5 7 7 27 4 4 5 7 11 12 13 13 13 13 14 14 15 15 15 16 16 17 15 15 17 16 14 14 15 16 16 16 16 16 17 18 19 20 20 19 20
4 3 2 4 3 9 14 13 9 9 9 12 11 12 13 14 14 15 16 16 16 16 17 17 18 19 17 17 17 17 16 16 19 19 19 18 18 19 21 21 21 21 19 19
3 13 3 5 4 8 10 9 10 10 9 10 12 13 13 14 15 16 16 17 18 18 18 18 18 18 19 17 17 18 19 19 20 21 21 21 22 23 23 21 20 21 21 20
4 8 4 5 6 6 8 10 11 12 11 11 11 14 14 16 17 17 18 18 18 19 18 19 20 19 20 19 19 20 20 20 21 23 25 26 24 24 25 24 24 24 25 22
7 4 3 3 4 5 4 8 9 13 13 14 14 15 14 15 16 17 18 18 18 20 20 20 20 21 23 23 22 22 21 21 22 25 25 24 22 23 23 23 25 23 21 22
Wind_Direction
342 261 345 19 12 343 313 302 304 315 22 303 274 287 286 273 235 229 236 234 228 220 212 203 219 231 236 235 241 252 266 280 302 327 337 6 7 12 7 16 21 19 17 18
228 279 66 58 293 288 293 301 312 352 13 311 304 298 292 280 246 235 230 233 229 216 200 202 214 226 230 230 236 245 249 256 266 267 276 268 280 311 322 336 352 354 354 355
291 64 141 239 267 291 297 297 322 314 318 273 292 270 185 152 216 226 230 233 226 209 199 203 210 221 224 226 235 242 248 255 267 275 279 282 288 295 318 328 331 336 344 352
289 129 244 263 277 281 301 55 300 303 322 310 7 297 273 169 234 208 208 205 203 197 201 203 209 215 221 224 230 239 250 258 266 273 275 275 273 278 299 309 324 333 340 344
80 216 232 260 279 189 317 322 299 304 285 304 185 251 325 175 237 243 216 205 203 199 196 199 210 216 218 224 227 237 246 253 260 261 258 262 265 277 292 303 312 318 323 326
279 95 252 313 264 237 310 285 260 268 266 246 125 264 284 5 22 3 347 221 204 198 195 198 205 211 217 224 229 237 242 249 256 259 257 259 269 278 282 289 295 305 312 317
179 212 158 228 266 198 253 309 303 250 225 282 143 255 265 321 340 310 304 282 210 208 201 197 201 208 216 224 232 239 245 247 249 256 261 268 270 274 275 280 288 294 299 305
279 257 194 165 264 319 311 300 278 299 306 304 157 236 226 193 167 302 241 240 210 215 213 209 211 215 221 229 235 242 247 251 254 260 265 267 268 267 267 271 274 278 289 295
274 244 132 173 300 293 135 225 34 285 271 276 230 236 260 232 150 234 244 231 230 224 218 217 217 219 225 232 239 246 250 252 257 259 261 262 262 262 263 264 268 278 290 300
12 282 165 113 189 210 250 6 240 203 276 279 275 302 303 120 93 23 254 252 247 232 219 209 211 217 221 229 245 251 251 254 256 254 257 259 259 259 263 269 275 282 291 299
284 229 184 172 203 214 183 216 213 309 262 258 301 300 80 20 351 334 327 306 260 227 224 215 217 227 235 243 250 251 246 248 254 254 253 255 259 264 265 265 269 277 291 300
201 294 267 274 82 6 301 267 220 209 204 241 282 277 282 3 78 339 319 315 293 237 223 214 228 239 254 251 246 243 233 241 249 253 251 257 262 260 258 261 268 285 296 299
173 224 298 274 116 82 266 257 252 245 281 243 257 263 112 227 271 333 323 299 295 237 206 217 265 359 331 317 289 245 260 254 250 259 263 260 261 257 259 261 272 289 299 299
175 247 244 258 280 300 256 229 231 218 228 259 240 276 287 293 337 334 344 338 312 221 178 138 72 273 289 285 290 291 293 283 259 258 257 255 252 256 256 271 282 295 299 296
208 237 247 250 261 275 271 267 251 219 230 240 275 276 289 333 5 356 346 341 332 123 101 61 292 312 319 320 331 342 295 262 261 258 253 254 261 257 265 276 287 295 295 293
180 249 249 260 262 261 265 263 263 257 254 246 253 270 30 359 10 20 12 8 21 56 35 9 351 348 345 341 336 321 298 278 263 247 245 245 254 264 273 279 289 292 290 285
185 214 189 273 287 299 274 258 246 247 251 297 260 346 355 5 24 27 14 29 29 23 17 9 0 355 350 343 333 320 306 292 265 249 251 257 262 268 274 281 286 288 286 280
204 200 188 276 248 251 281 41 8 86 54 21 8 12 5 357 74 51 37 30 20 6 358 351 347 344 341 337 331 322 307 289 276 265 262 267 272 275 279 280 281 282 278 278
227 191 233 242 226 286 298 32 27 355 74 27 4 2 353 337 296 58 18 7 354 348 342 343 338 332 330 325 318 308 296 288 286 283 277 273 274 276 274 278 279 276 277 271
267 250 213 185 252 264 66 338 349 311 171 18 8 3 351 350 324 30 356 352 348 343 336 335 330 325 322 319 313 307 300 291 287 278 273 274 275 274 275 276 278 277 271 271
192 213 228 233 255 192 351 315 314 205 19 8 2 3 360 5 350 325 333 339 338 335 331 330 328 324 318 317 313 308 302 297 286 282 282 281 280 277 277 279 278 277 275 272
228 264 215 216 222 237 357 27 359 360 7 8 360 359 355 344 337 338 336 335 338 335 333 328 324 319 317 317 315 310 304 299 292 289 286 284 281 279 279 281 279 273 272 271
232 347 331 11 66 87 52 66 50 21 18 3 348 348 351 344 337 332 331 334 335 332 330 326 319 318 320 315 310 305 300 291 291 290 289 287 284 281 281 279 277 275 271 270
71 9 84 163 71 86 73 56 40 19 8 351 345 344 340 330 329 329 329 331 330 328 326 317 318 317 312 309 304 300 301 298 296 293 290 287 284 284 283 279 277 273 269 263
355 339 356 100 60 151 80 40 10 358 350 347 343 333 334 331 326 326 325 325 322 321 321 317 313 309 307 307 304 303 300 296 293 291 291 291 289 288 285 278 275 270 272 266
7 18 357 50 50 305 24 357 349 352 345 341 336 332 327 324 321 322 321 320 321 321 318 316 312 310 309 308 306 306 303 298 294 292 292 291 287 282 280 280 281 277 269 267
Height
1514 1510 1510 1513 1515 1514 1514 1510 1504 1495 1500 1506 1493 1484 1478 1477 1479 1484 1487 1488 1490 1493 1496 1497 1497 1499 1500 1502 1502 1502 1502 1502 1503 1502 1501 1500 1499 1498 1496 1495 1493 1492 1491 1490
1513 1507 1515 1518 1517 1516 1512 1507 1496 1498 1504 1505 1489 1478 1470 1471 1472 1476 1481 1484 1486 1490 1492 1493 1493 1495 1497 1499 1499 1500 1499 1500 1501 1501 1501 1499 1499 1498 1497 1496 1494 1493 1491 1490
1511 1513 1517 1517 1513 1512 1504 1505 1503 1510 1503 1490 1495 1465 1465 1471 1473 1475 1477 1480 1482 1484 1487 1488 1489 1492 1494 1496 1497 1498 1498 1498 1499 1499 1499 1499 1498 1497 1497 1496 1495 1493 1492 1490
1511 1516 1516 1514 1512 1512 1510 1509 1512 1511 1509 1492 1495 1478 1451 1463 1467 1471 1473 1476 1478 1480 1484 1486 1487 1489 1491 1493 1493 1495 1496 1497 1497 1498 1497 1497 1497 1496 1495 1494 1493 1492 1491 1490
1508 1513 1514 1513 1507 1512 1506 1512 1511 1511 1508 1501 1490 1492 1451 1462 1461 1463 1466 1471 1475 1477 1480 1482 1484 1487 1489 1490 1491 1492 1493 1494 1495 1494 1494 1495 1495 1494 1493 1493 1492 1491 1490 1489
1511 1516 1515 1510 1513 1513 1512 1508 1500 1506 1504 1503 1481 1488 1468 1456 1463 1464 1466 1467 1473 1476 1478 1479 1481 1483 1485 1487 1488 1489 1489 1490 1491 1492 1492 1492 1492 1492 1492 1491 1490 1489 1489 1489
1508 1509 1513 1515 1512 1512 1511 1501 1498 1496 1496 1484 1491 1492 1465 1457 1461 1466 1469 1469 1472 1476 1477 1478 1478 1479 1480 1482 1484 1485 1486 1486 1487 1489 1488 1489 1489 1489 1490 1489 1488 1487 1486 1486
1505 1507 1509 1511 1509 1508 1507 1508 1506 1505 1490 1481 1488 1482 1460 1459 1464 1466 1468 1469 1471 1472 1474 1474 1475 1475 1476 1478 1480 1481 1482 1483 1484 1485 1486 1486 1486 1485 1485 1486 1485 1484 1484 1484
1502 1500 1510 1512 1512 1513 1509 1509 1508 1504 1486 1494 1463 1463 1456 1456 1459 1464 1467 1468 1470 1470 1471 1473 1475 1475 1475 1475 1476 1477 1477 1478 1480 1480 1481 1481 1481 1482 1483 1483 1482 1482 1482 1481
1503 1505 1504 1512 1513 1513 1511 1510 1507 1508 1505 1481 1454 1455 1453 1454 1457 1462 1464 1466 1466 1468 1470 1469 1469 1471 1472 1472 1473 1473 1474 1475 1476 1477 1478 1478 1478 1478 1479 1480 1480 1479 1478 1478
1507 1507 1502 1509 1505 1494 1512 1506 1509 1508 1502 1502 1474 1454 1451 1455 1459 1461 1462 1462 1462 1465 1467 1467 1467 1468 1469 1469 1470 1471 1469 1471 1473 1474 1474 1474 1475 1476 1477 1476 1476 1476 1475 1475
1505 1502 1498 1489 1496 1499 1498 1493 1494 1508 1499 1496 1480 1460 1449 1453 1459 1462 1462 1462 1462 1463 1465 1468 1468 1468 1468 1468 1467 1470 1467 1465 1470 1473 1473 1473 1473 1473 1473 1473 1474 1473 1473 1471
1505 1501 1503 1487 1498 1502 1501 1497 1501 1505 1507 1496 1488 1460 1449 1455 1454 1454 1457 1458 1460 1462 1465 1467 1468 1468 1468 1468 1469 1468 1468 1464 1467 1470 1471 1472 1472 1472 1472 1471 1470 1469 1469 1469
1505 1499 1499 1501 1486 1488 1505 1504 1500 1507 1501 1481 1468 1459 1450 1452 1454 1458 1459 1459 1459 1461 1465 1467 1467 1466 1465 1465 1466 1463 1462 1462 1466 1467 1469 1469 1470 1472 1470 1470 1468 1466 1465 1464
1505 1508 1504 1496 1492 1489 1484 1484 1486 1492 1487 1485 1456 1461 1452 1458 1463 1465 1464 1463 1460 1461 1464 1465 1465 1465 1464 1462 1461 1461 1462 1461 1461 1462 1464 1467 1467 1467 1466 1467 1465 1461 1460 1460
1507 1503 1504 1491 1488 1484 1475 1473 1467 1463 1463 1462 1463 1455 1468 1469 1467 1467 1469 1468 1466 1468 1470 1469 1468 1466 1464 1463 1461 1460 1459 1458 1458 1459 1461 1462 1463 1463 1462 1461 1460 1458 1457 1455
1506 1504 1502 1478 1477 1477 1470 1453 1449 1447 1453 1458 1455 1464 1471 1470 1471 1474 1474 1473 1474 1474 1472 1470 1468 1467 1465 1464 1463 1461 1459 1457 1456 1457 1458 1458 1459 1458 1457 1455 1453 1452 1453 1453
1493 1496 1495 1478 1481 1470 1440 1450 1449 1455 1475 1480 1477 1479 1479 1478 1479 1479 1478 1477 1476 1475 1473 1470 1468 1465 1463 1462 1461 1461 1461 1460 1458 1455 1454 1454 1455 1454 1453 1451 1448 1448 1448 1450
1474 1485 1484 1477 1467 1445 1441 1464 1467 1464 1483 1489 1487 1486 1483 1479 1478 1481 1480 1479 1478 1476 1473 1469 1467 1466 1462 1460 1459 1457 1456 1456 1456 1456 1453 1450 1450 1450 1448 1445 1444 1444 1443 1446
1475 1472 1477 1474 1464 1447 1469 1476 1474 1473 1472 1494 1493 1492 1489 1481 1470 1480 1482 1480 1477 1475 1473 1469 1466 1465 1462 1458 1457 1455 1454 1453 1452 1450 1450 1448 1446 1445 1444 1441 1439 1438 1440 1440
1472 1473 1468 1465 1459 1458 1490 1483 1476 1464 1487 1498 1497 1495 1492 1489 1490 1486 1483 1481 1477 1475 1471 1467 1466 1464 1462 1458 1455 1453 1452 1450 1449 1448 1446 1443 1442 1441 1439 1435 1434 1434 1434 1434
1467 1462 1461 1457 1450 1446 1489 1480 1480 1501 1498 1498 1498 1495 1492 1492 1488 1486 1483 1480 1475 1472 1469 1466 1463 1462 1459 1456 1452 1450 1450 1448 1447 1445 1442 1440 1438 1436 1433 1431 1430 1429 1428 1427
1461 1476 1469 1484 1486 1499 1498 1501 1502 1503 1500 1499 1500 1496 1493 1490 1489 1486 1483 1479 1474 1471 1467 1464 1463 1460 1457 1454 1450 1447 1446 1444 1442 1440 1437 1434 1433 1431 1428 1426 1424 1423 1422 1420
1481 1483 1482 1488 1502 1502 1501 1502 1501 1500 1499 1499 1498 1495 1493 1491 1488 1484 1481 1476 1473 1470 1467 1464 1460 1457 1455 1452 1448 1445 1442 1439 1436 1434 1431 1429 1426 1424 1422 1420 1418 1416 1415 1414
1496 1491 1490 1496 1502 1502 1502 1500 1500 1500 1498 1496 1495 1495 1491 1488 1486 1482 1478 1474 1470 1467 1465 1461 1458 1454 1450 1446 1442 1439 1436 1433 1430 1427 1424 1422 1420 1417 1415 1413 1411 1410 1408 1407
1501 1502 1496 1497 1507 1505 1502 1500 1499 1498 1498 1495 1494 1490 1488 1486 1483 1479 1475 1471 1467 1463 1460 1457 1453 1449 1444 1440 1436 1433 1430 1427 1424 1420 1418 1415 1414 1411 1409 1406 1403 1402 1401 1401